Wind_Speed
14 14 13 11 13 12 7 5 5 5 5 4 4 4 4 4 4 4 4 3 3 4 3 4 4 4 4 4 5 5 5 5 5 5 5 4 4 4 4 3 4 4 4 4 3 2 2 1 1
14 12 11 13 12 8 6 6 5 5 4 4 5 5 4 4 4 4 4 3 3 3 3 3 3 4 4 4 4 5 5 4 4 4 4 4 4 3 2 3 3 3 3 3 2 2 1 0 1
14 13 13 14 10 7 6 6 6 5 5 5 5 5 5 5 4 4 4 4 3 3 3 3 3 4 4 4 4 4 4 4 4 4 4 3 3 2 2 2 2 2 2 1 1 1 1 1 1
14 15 15 12 9 7 7 6 6 6 5 5 6 6 5 5 4 4 4 4 4 4 4 4 3 3 3 4 4 4 4 4 4 4 4 3 2 2 2 1 0 0 1 1 1 1 1 2 1
15 16 14 10 8 7 8 7 7 7 6 6 6 6 6 5 5 4 4 5 4 4 4 3 3 3 3 3 4 4 4 4 4 4 4 3 2 2 0 0 1 1 2 2 2 2 2 2 2
19 17 13 9 8 8 8 8 7 7 7 7 7 6 6 6 5 5 4 4 5 5 4 4 4 4 3 3 3 4 4 3 3 3 2 2 2 2 1 0 1 1 2 2 3 2 2 2 2
18 15 11 8 7 8 9 8 8 7 7 7 7 7 7 6 6 5 5 5 5 5 5 4 5 5 4 3 4 4 3 3 3 2 2 2 2 2 1 0 0 1 2 2 2 2 2 2 2
16 13 10 8 7 7 8 9 9 9 8 8 7 7 7 7 7 7 7 6 6 6 5 5 5 5 5 5 5 4 3 3 3 2 1 2 2 2 1 1 1 1 1 2 2 1 2 2 1
13 11 7 7 7 7 9 9 9 10 9 9 8 8 7 7 7 7 7 7 7 6 6 5 6 5 5 5 5 5 4 3 2 2 1 1 1 2 2 1 1 1 1 1 1 1 1 1 1
10 9 8 8 8 8 8 9 10 9 9 8 8 8 8 8 7 7 7 7 7 7 6 6 6 5 5 5 5 4 3 3 2 2 2 1 1 1 1 1 1 2 2 2 1 1 1 1 2
8 8 8 8 8 8 8 8 9 9 9 8 8 8 8 8 7 7 7 7 7 7 6 6 6 5 5 5 5 4 4 3 3 3 3 2 2 2 2 2 2 2 2 2 1 1 2 2 2
7 7 7 8 8 8 8 9 9 9 9 9 8 9 9 9 8 7 7 7 7 6 6 6 6 5 5 5 5 5 5 5 4 3 4 3 2 3 3 3 2 3 3 3 2 2 3 3 3
7 6 8 8 9 10 9 8 9 10 9 9 9 9 9 10 9 9 8 8 8 7 7 7 7 7 6 6 6 6 5 5 5 4 4 4 3 4 4 3 2 3 3 3 3 3 3 4 4
7 7 8 9 10 10 10 11 11 10 9 9 9 9 9 10 11 11 9 8 8 8 8 7 7 7 7 7 6 6 6 6 6 5 5 5 4 4 4 4 3 3 3 3 4 4 4 5 5
6 6 7 9 10 10 10 11 11 11 9 9 9 10 10 11 11 11 10 9 8 8 8 8 8 8 7 7 7 6 7 7 6 6 5 5 5 4 5 5 4 4 5 4 5 6 6 6 6
9 8 7 7 9 10 11 11 12 11 10 9 9 10 11 11 11 11 10 9 8 8 8 8 8 8 7 7 6 6 7 7 7 6 6 6 6 5 5 5 5 5 6 6 6 7 7 8 8
6 5 6 7 7 7 8 10 12 11 10 9 9 9 10 11 11 11 10 9 8 7 7 7 7 7 7 6 6 6 7 7 7 7 6 7 7 6 6 6 6 7 7 7 8 8 9 10 10
4 3 4 5 6 6 7 9 11 11 10 10 9 9 9 10 10 10 10 9 8 7 7 6 7 7 7 6 6 6 7 7 8 7 7 8 8 8 7 7 7 8 8 8 8 9 10 11 11
2 2 2 2 4 5 6 8 10 11 11 11 10 9 9 9 9 9 10 9 8 7 6 6 6 6 7 7 7 7 7 8 8 9 8 8 9 8 9 8 9 8 8 8 9 9 10 11 11
1 1 2 3 3 3 5 7 9 10 11 11 10 9 8 8 8 8 9 9 8 7 7 7 7 7 7 7 7 7 8 9 9 10 9 9 9 9 9 9 9 9 9 9 10 10 10 10 10
1 1 2 3 4 4 6 8 8 10 10 10 9 9 8 8 7 7 8 9 9 7 7 7 7 8 8 8 8 8 8 9 10 11 11 11 10 10 10 10 10 10 10 10 10 10 10 10 10
3 2 2 2 3 5 5 8 9 10 10 10 8 8 8 8 8 7 7 8 8 8 6 6 7 8 8 8 8 8 9 10 11 12 12 11 11 11 10 11 11 10 11 10 10 10 10 11 11
4 3 3 2 3 4 5 8 10 10 11 10 8 8 7 7 7 7 7 7 8 8 7 7 8 8 9 9 9 9 10 11 12 12 13 12 12 12 11 12 12 11 11 11 11 11 12 12 12
5 4 2 4 4 6 5 7 9 10 12 12 9 8 7 7 7 6 6 7 8 8 8 8 9 9 9 10 10 11 11 12 13 13 13 12 12 12 12 12 12 11 12 12 12 12 13 12 13
6 5 5 6 5 7 7 7 8 11 12 12 11 9 7 7 7 7 7 8 8 9 8 9 10 10 10 10 11 11 12 12 13 13 13 13 12 13 13 13 12 12 13 12 13 13 14 14 14
9 8 6 7 7 8 9 8 9 11 12 13 11 9 8 8 9 9 9 9 9 9 9 9 10 10 10 10 11 12 13 13 13 14 15 14 14 14 14 14 14 14 14 14 14 14 15 16 15
11 11 9 9 9 9 10 8 11 12 12 12 11 11 10 10 10 10 9 10 10 10 10 10 10 10 11 12 13 13 13 13 14 15 15 16 15 15 15 15 15 14 15 15 16 16 16 16 16
13 11 10 10 11 11 10 8 10 12 13 14 13 13 12 12 12 11 10 10 11 11 12 11 11 11 12 13 14 14 14 14 15 16 17 17 16 16 16 16 16 16 16 17 17 17 17 18 18
13 12 12 13 13 11 12 11 12 14 15 15 15 15 14 14 13 12 11 12 13 13 14 14 13 13 14 14 15 15 15 16 17 17 18 18 18 18 18 18 18 18 18 18 18 18 19 19 20
16 16 16 16 17 15 15 14 15 13 14 17 17 16 15 15 15 15 15 14 15 15 15 16 15 16 16 17 17 17 17 17 17 18 19 19 19 19 19 20 20 20 20 20 20 21 21 22 22
Wind_Direction
91 89 86 83 74 68 70 64 61 65 63 59 54 51 48 48 45 36 42 52 63 69 77 95 100 106 111 113 112 111 118 122 130 139 142 139 142 142 142 148 159 158 156 159 159 148 130 99 123
91 91 84 74 66 63 60 54 50 52 48 49 41 40 43 52 50 41 40 43 57 64 76 102 110 114 116 119 119 119 121 120 123 136 146 151 158 148 153 157 162 166 167 165 163 151 137 79 121
94 88 76 66 59 56 50 47 45 50 48 46 40 41 40 44 53 44 39 37 57 67 75 101 110 122 124 127 127 123 126 127 125 130 140 142 152 149 152 172 178 177 180 190 192 194 267 291 305
91 81 68 61 52 48 48 47 46 51 50 48 45 44 43 47 53 49 41 36 50 62 72 95 107 117 118 119 120 118 123 125 127 131 137 120 129 141 118 180 222 280 238 255 275 295 302 279 294
80 72 64 53 40 42 44 43 45 51 50 49 47 43 45 42 44 49 41 37 47 62 76 87 99 108 112 112 113 106 109 115 127 128 132 118 110 112 60 353 334 317 300 289 286 305 285 270 310
74 66 62 45 32 35 38 36 44 55 51 49 48 40 42 43 39 40 40 44 53 62 81 93 91 94 100 108 105 96 98 112 119 115 113 102 107 93 91 232 342 345 319 291 279 283 288 289 296
74 68 54 41 36 35 36 38 40 45 47 45 43 43 39 39 39 41 46 52 57 66 81 88 88 89 89 87 87 87 91 95 94 98 107 97 96 85 88 105 44 9 351 339 295 289 295 288 292
75 68 50 42 35 41 37 38 41 45 45 42 40 40 39 39 45 46 52 56 57 62 70 77 81 79 83 84 85 83 82 79 76 78 73 79 75 56 29 30 12 6 340 352 1 315 280 270 279
69 67 54 40 40 41 45 40 41 43 42 38 34 35 38 44 50 52 52 49 49 53 59 68 65 68 70 77 76 78 76 72 73 63 54 44 39 30 25 33 23 335 307 311 341 356 311 274 278
59 54 43 37 39 36 39 39 37 35 38 34 30 34 41 44 47 50 48 44 44 46 47 53 58 64 62 62 62 62 62 67 64 49 33 32 24 10 354 338 311 298 292 304 316 7 6 311 289
57 51 47 39 42 36 35 35 33 29 33 32 33 38 40 42 45 46 44 39 40 42 41 43 49 55 54 50 51 50 44 55 58 44 32 22 357 352 348 321 298 304 303 300 333 316 311 318 319
65 54 49 46 44 36 34 34 30 25 29 34 41 39 40 40 41 41 40 38 41 41 44 43 47 49 47 41 47 54 50 42 42 32 21 11 353 347 344 332 315 299 296 286 303 307 313 312 318
71 57 51 46 39 34 31 32 28 27 27 32 43 44 41 39 40 40 41 39 45 47 52 54 53 50 46 42 46 49 45 37 33 26 11 1 355 351 341 332 328 313 301 294 286 300 325 315 308
74 61 46 42 36 30 27 32 30 26 25 29 40 43 43 41 41 41 39 39 46 52 57 60 56 50 45 43 46 47 45 39 33 29 19 8 355 345 333 325 324 315 303 304 301 298 308 314 309
64 54 41 33 25 19 24 25 26 23 23 32 37 40 40 39 39 39 39 41 49 54 56 56 53 49 47 47 49 49 43 36 30 25 18 9 360 343 325 320 315 313 315 309 304 300 298 301 303
40 23 31 18 20 15 20 15 19 22 24 29 33 35 34 34 32 33 37 40 47 55 55 53 49 47 48 49 48 43 36 32 28 27 20 13 10 354 327 316 314 311 308 303 302 301 298 297 299
40 16 17 8 6 19 18 1 11 16 23 24 26 29 28 29 29 29 33 39 46 51 49 45 42 41 41 44 42 36 32 28 23 23 18 15 6 357 344 334 327 320 312 303 299 302 299 300 299
81 49 5 359 358 14 14 359 3 9 18 18 21 21 21 24 25 28 29 30 37 41 39 39 34 31 29 32 35 30 26 26 24 24 17 11 4 356 346 336 330 320 317 312 307 304 302 303 303
95 57 16 355 340 360 5 355 357 1 5 6 8 13 15 16 19 24 26 27 27 29 30 31 31 25 20 24 27 25 24 23 18 17 12 6 359 353 349 345 339 330 324 324 321 315 313 310 307
133 334 349 337 324 349 348 344 349 353 352 353 356 3 8 8 11 18 23 23 25 25 18 18 20 16 13 16 18 18 14 13 9 7 6 4 2 359 356 350 341 334 331 329 324 318 318 321 316
219 260 271 312 340 357 341 335 342 344 344 346 348 353 2 6 9 15 19 20 20 20 18 14 10 11 11 13 10 7 5 3 2 1 359 359 360 357 354 347 340 337 334 330 324 318 316 322 318
261 261 255 301 324 331 335 321 331 337 335 337 347 350 356 3 5 7 9 12 13 13 10 7 3 4 5 5 4 2 358 359 359 359 358 359 358 355 352 348 342 340 338 333 328 325 319 321 318
244 247 246 267 299 319 325 312 321 327 327 330 340 342 344 355 357 357 356 359 2 4 2 358 357 355 355 359 359 357 358 356 355 354 354 354 356 356 350 345 340 340 337 334 331 327 324 322 319
237 247 307 324 306 306 311 303 309 316 319 322 325 324 333 337 341 341 341 343 345 350 352 350 353 352 355 355 353 351 351 353 354 355 354 353 352 350 348 345 340 337 334 332 329 327 328 325 319
242 259 286 295 296 299 306 283 287 303 312 314 310 309 317 324 325 326 324 327 330 335 339 340 341 341 342 345 346 346 345 346 347 348 348 345 344 343 344 341 338 337 334 330 327 325 323 324 322
238 246 250 272 282 291 297 290 290 296 302 307 305 301 301 302 306 310 312 317 318 320 325 328 331 332 332 334 337 340 342 342 342 342 343 341 337 336 338 337 336 335 333 328 325 323 321 321 321
242 240 246 264 275 276 282 287 295 294 303 305 304 296 291 293 296 302 308 311 312 313 315 318 319 321 325 330 333 334 335 335 336 339 339 339 333 330 331 330 332 330 328 325 321 318 315 316 317
251 246 242 249 258 261 271 288 285 281 290 299 304 301 297 291 290 292 298 302 301 306 310 312 313 316 319 323 328 330 331 331 332 333 332 333 331 329 327 325 325 323 320 318 317 317 316 315 314
245 250 248 246 252 260 266 269 273 281 286 290 292 293 291 289 291 292 293 294 300 304 306 307 309 312 315 318 322 326 328 329 329 329 329 328 327 326 324 323 322 321 319 319 318 317 315 314 313
245 243 246 249 252 254 263 270 269 276 285 282 283 287 289 289 289 286 288 293 295 295 297 300 302 304 308 311 315 317 319 321 323 323 324 325 322 320 319 319 319 318 317 317 316 315 313 313 311
Height
5888 5888 5889 5889 5889 5889 5890 5890 5889 5888 5888 5887 5887 5886 5885 5885 5885 5886 5884 5882 5882 5881 5881 5881 5880 5881 5881 5881 5881 5882 5882 5882 5882 5883 5883 5884 5884 5885 5885 5886 5886 5887 5887 5888 5889 5889 5890 5890 5890
5891 5892 5892 5890 5891 5892 5892 5892 5891 5891 5890 5889 5888 5888 5887 5886 5886 5885 5884 5883 5883 5882 5882 5882 5882 5882 5882 5882 5883 5883 5883 5883 5883 5884 5884 5885 5885 5886 5886 5887 5887 5887 5888 5889 5889 5890 5890 5891 5891
5894 5894 5893 5893 5894 5894 5895 5894 5893 5892 5891 5891 5890 5889 5889 5888 5887 5886 5885 5884 5884 5883 5883 5883 5883 5883 5883 5883 5883 5884 5884 5884 5884 5884 5885 5885 5886 5886 5887 5887 5887 5888 5888 5889 5889 5890 5890 5891 5891
5896 5895 5896 5898 5897 5897 5897 5896 5894 5894 5893 5892 5892 5891 5889 5889 5888 5887 5886 5885 5885 5884 5883 5884 5884 5884 5884 5884 5884 5884 5884 5885 5885 5885 5885 5886 5886 5887 5887 5888 5888 5888 5889 5889 5889 5890 5890 5891 5891
5897 5898 5900 5900 5900 5899 5898 5897 5897 5896 5895 5894 5893 5892 5891 5890 5889 5888 5887 5886 5886 5885 5885 5885 5885 5885 5885 5885 5885 5885 5885 5885 5885 5886 5886 5886 5887 5887 5888 5888 5888 5888 5888 5889 5889 5890 5890 5891 5891
5899 5902 5904 5904 5903 5902 5901 5900 5899 5898 5897 5896 5895 5894 5893 5892 5890 5889 5889 5888 5887 5887 5886 5886 5886 5886 5886 5886 5886 5886 5886 5886 5887 5887 5887 5888 5888 5888 5888 5888 5889 5889 5888 5889 5889 5890 5890 5891 5891
5902 5904 5906 5907 5905 5904 5903 5901 5900 5900 5898 5897 5896 5896 5894 5893 5892 5891 5890 5889 5889 5888 5888 5887 5887 5887 5887 5887 5887 5887 5887 5887 5888 5888 5888 5888 5888 5889 5889 5889 5889 5889 5889 5889 5889 5889 5890 5890 5891
5907 5909 5910 5909 5908 5906 5905 5903 5903 5901 5900 5899 5898 5897 5896 5895 5893 5892 5891 5891 5890 5889 5889 5889 5888 5888 5888 5888 5888 5888 5888 5888 5889 5889 5889 5889 5889 5889 5889 5889 5889 5889 5889 5889 5889 5889 5890 5890 5890
5911 5913 5912 5911 5910 5908 5907 5906 5905 5903 5902 5901 5900 5899 5898 5897 5895 5894 5893 5892 5891 5891 5890 5890 5889 5889 5889 5889 5889 5889 5889 5889 5890 5890 5890 5890 5890 5890 5889 5889 5889 5889 5889 5889 5889 5889 5890 5890 5890
5913 5914 5914 5913 5912 5910 5909 5908 5907 5905 5904 5903 5902 5901 5899 5898 5897 5896 5895 5894 5893 5892 5892 5891 5890 5890 5890 5890 5890 5890 5890 5890 5890 5890 5890 5890 5890 5890 5890 5890 5889 5889 5889 5889 5889 5889 5890 5890 5890
5917 5916 5916 5915 5913 5912 5911 5910 5909 5908 5906 5905 5903 5902 5901 5900 5899 5897 5896 5895 5894 5893 5893 5892 5892 5892 5892 5892 5891 5891 5891 5891 5891 5891 5891 5890 5890 5890 5890 5890 5889 5889 5889 5889 5889 5890 5890 5890 5890
5920 5918 5917 5917 5916 5914 5913 5912 5911 5909 5909 5907 5905 5904 5903 5901 5900 5899 5898 5896 5895 5894 5893 5893 5893 5893 5893 5893 5892 5892 5892 5892 5892 5891 5891 5891 5890 5890 5890 5890 5889 5889 5889 5889 5889 5890 5890 5890 5889
5921 5920 5919 5919 5918 5916 5915 5914 5913 5911 5910 5909 5907 5906 5905 5903 5902 5900 5899 5898 5896 5895 5895 5894 5894 5894 5894 5894 5893 5893 5893 5892 5892 5892 5891 5891 5891 5890 5890 5890 5889 5889 5889 5889 5889 5889 5889 5889 5889
5922 5922 5921 5921 5920 5918 5917 5915 5914 5913 5912 5911 5909 5908 5906 5905 5904 5902 5901 5899 5898 5897 5896 5896 5896 5896 5896 5895 5895 5894 5894 5893 5893 5892 5891 5891 5891 5890 5890 5889 5889 5889 5889 5889 5889 5889 5889 5889 5888
5922 5923 5923 5922 5922 5921 5919 5918 5916 5915 5914 5912 5911 5910 5908 5907 5905 5904 5903 5901 5900 5899 5898 5898 5898 5898 5897 5897 5896 5896 5895 5894 5894 5892 5892 5891 5890 5890 5889 5889 5888 5888 5888 5888 5888 5888 5888 5888 5887
5926 5926 5925 5925 5924 5923 5923 5920 5919 5917 5915 5914 5913 5911 5910 5909 5907 5906 5905 5903 5902 5901 5901 5901 5900 5899 5899 5898 5898 5897 5896 5896 5894 5893 5892 5891 5890 5890 5889 5888 5888 5887 5887 5887 5887 5887 5887 5886 5886
5928 5928 5928 5927 5926 5925 5925 5922 5920 5918 5916 5916 5914 5913 5912 5910 5909 5908 5907 5905 5904 5903 5903 5902 5902 5901 5900 5899 5899 5898 5897 5896 5895 5894 5893 5892 5891 5889 5888 5887 5887 5886 5887 5886 5886 5886 5885 5885 5884
5931 5931 5930 5929 5928 5927 5926 5924 5922 5919 5918 5917 5916 5915 5913 5912 5911 5910 5908 5907 5906 5905 5904 5904 5903 5902 5902 5901 5900 5899 5898 5897 5896 5895 5894 5892 5891 5889 5888 5887 5886 5886 5886 5885 5885 5884 5884 5883 5882
5930 5932 5931 5931 5930 5929 5927 5926 5924 5922 5921 5919 5917 5916 5914 5913 5912 5911 5910 5908 5907 5906 5906 5905 5905 5904 5903 5902 5901 5900 5899 5898 5896 5895 5893 5892 5891 5889 5888 5887 5886 5885 5884 5884 5883 5883 5882 5881 5881
5931 5932 5932 5931 5930 5929 5928 5927 5925 5923 5923 5921 5919 5917 5916 5914 5914 5913 5911 5910 5909 5908 5907 5906 5906 5905 5904 5903 5902 5901 5900 5899 5897 5896 5894 5892 5890 5889 5888 5887 5885 5885 5884 5883 5882 5881 5881 5880 5879
5931 5932 5932 5931 5930 5929 5929 5928 5926 5925 5924 5922 5920 5919 5917 5916 5915 5914 5913 5912 5910 5909 5908 5908 5907 5906 5905 5904 5903 5902 5901 5900 5898 5896 5894 5892 5890 5889 5887 5886 5885 5884 5883 5882 5881 5880 5879 5879 5878
5931 5931 5931 5930 5930 5930 5930 5929 5927 5925 5924 5922 5921 5920 5918 5917 5916 5915 5914 5913 5912 5911 5910 5909 5908 5907 5906 5905 5904 5903 5901 5900 5898 5896 5894 5892 5890 5888 5887 5885 5884 5883 5881 5880 5879 5878 5877 5877 5876
5929 5929 5929 5929 5929 5930 5931 5930 5927 5924 5923 5922 5920 5920 5918 5918 5917 5916 5915 5913 5913 5912 5911 5910 5909 5908 5906 5905 5904 5903 5902 5900 5899 5897 5894 5893 5891 5889 5887 5885 5883 5882 5880 5879 5878 5877 5876 5875 5874
5928 5928 5928 5929 5929 5929 5930 5930 5927 5924 5923 5922 5920 5920 5919 5918 5917 5916 5915 5914 5913 5912 5911 5910 5909 5908 5907 5906 5904 5903 5902 5900 5898 5896 5894 5892 5890 5889 5886 5884 5883 5881 5879 5878 5877 5875 5874 5873 5871
5927 5928 5928 5929 5928 5929 5929 5929 5927 5925 5924 5923 5921 5919 5919 5918 5917 5916 5915 5914 5913 5912 5911 5910 5909 5908 5907 5906 5904 5903 5901 5900 5898 5896 5894 5892 5890 5888 5886 5884 5882 5880 5878 5877 5876 5874 5873 5871 5869
5925 5926 5927 5928 5928 5929 5928 5927 5926 5925 5923 5922 5920 5919 5918 5917 5916 5915 5914 5913 5912 5912 5911 5910 5909 5908 5907 5906 5904 5902 5901 5899 5897 5896 5893 5891 5889 5887 5885 5882 5881 5879 5877 5875 5874 5872 5871 5869 5867
5923 5924 5925 5926 5926 5927 5927 5925 5925 5923 5921 5920 5919 5918 5917 5916 5915 5914 5913 5912 5911 5911 5910 5909 5908 5907 5906 5905 5903 5902 5900 5898 5896 5894 5892 5890 5888 5886 5883 5881 5879 5877 5875 5874 5872 5870 5868 5866 5864
5920 5921 5923 5923 5923 5923 5924 5924 5923 5920 5920 5919 5917 5916 5915 5914 5913 5912 5912 5911 5910 5909 5908 5908 5907 5906 5904 5903 5902 5900 5898 5897 5895 5893 5890 5888 5886 5884 5882 5879 5877 5875 5873 5871 5869 5867 5865 5863 5861
5918 5919 5920 5920 5920 5921 5921 5923 5920 5919 5918 5917 5916 5914 5913 5912 5911 5910 5910 5909 5908 5907 5906 5905 5904 5904 5903 5902 5900 5898 5897 5895 5893 5891 5889 5886 5884 5882 5880 5877 5875 5873 5871 5868 5866 5864 5862 5860 5858
5913 5915 5917 5918 5917 5917 5917 5920 5917 5916 5916 5914 5913 5912 5911 5909 5909 5908 5907 5907 5906 5905 5904 5903 5902 5901 5900 5899 5898 5896 5894 5893 5891 5889 5887 5884 5882 5880 5877 5875 5872 5870 5868 5865 5863 5861 5858 5856 5854